Flight Track Log - Related Links

Times and Time Zones

All times are in EDT time to prevent confusion due to time zone crossing. See the DAL1386 flight status page for this flight to view local times or setup timezone preferences in your user account.

Time Position Orientation Groundspeed Altitude Reporting Facility
EDT Latitude Longitude Course Direction KTS MPH feet Rate Location/Type
Sun 11:47:00 AM 18.4500 -65.9667 317° Northwest 160 184 1,200  Level San Juan Center
Sun 11:48:01 AM 18.5167 -65.9833 347° North 250 288 2,600 1,983 Climbing San Juan Center
Sun 11:49:00 AM 18.6959 -66.2459 317° Northwest  Level FlightAware Approximate
Sun 11:49:01 AM 18.5667 -66.0333 317° Northwest 290 334 5,200  Level San Juan Center
Sun 11:50:00 AM 18.7810 -66.3310 317° Northwest  Level FlightAware Approximate
Sun 11:50:01 AM 18.6167 -66.1000 308° West 290 334 8,200  Level San Juan Center
Sun 11:51:00 AM 18.8661 -66.4162 317° Northwest  Level FlightAware Approximate
Sun 11:51:02 AM 18.6667 -66.1667 308° West 290 334 10,600  Level San Juan Center
Sun 11:52:00 AM 18.9513 -66.5013 317° Northwest  Level FlightAware Approximate
Sun 11:52:02 AM 18.7333 -66.2333 317° Northwest 360 414 11,500  Level San Juan Center
Sun 11:53:02 AM 18.8000 -66.3333 305° West 390 449 13,600 2,132 Climbing San Juan Center
Sun 11:54:03 AM 18.8833 -66.4167 317° Northwest 410 472 15,800 2,083 Climbing San Juan Center
Sun 11:55:03 AM 18.9500 -66.5000 310° West 410 472 17,800 1,900 Climbing San Juan Center
Sun 11:56:03 AM 19.0333 -66.6000 311° West 410 472 19,600 1,750 Climbing San Juan Center
Sun 11:57:03 AM 19.1333 -66.6833 322° Northwest 430 495 21,300 1,587 Climbing San Juan Center
Sun 11:58:04 AM 19.2167 -66.7500 323° Northwest 420 483 22,800 1,537 Climbing San Juan Center
Sun 11:59:04 AM 19.3167 -66.8333 322° Northwest 450 518 24,400 1,339 Climbing San Juan Center
Sun 12:00:05 PM 19.4167 -66.9167 322° Northwest 450 518 25,500 992 Climbing San Juan Center
Sun 12:01:05 PM 19.5167 -67.0000 322° Northwest 450 518 26,400 1,150 Climbing San Juan Center
Sun 12:02:05 PM 19.6167 -67.0833 322° Northwest 470 541 27,800 1,388 Climbing San Juan Center
Sun 12:03:06 PM 19.7167 -67.1667 322° Northwest 460 529 29,200 1,587 Climbing San Juan Center
Sun 12:04:06 PM 19.8167 -67.2500 322° Northwest 450 518 31,000 1,750 Climbing San Juan Center
Sun 12:05:06 PM 19.9000 -67.3333 317° Northwest 430 495 32,700 1,300 Climbing San Juan Center
Sun 12:06:06 PM 20.0000 -67.4000 328° Northwest 420 483 33,600 645 Climbing San Juan Center
Sun 12:07:07 PM 20.0833 -67.4833 317° Northwest 420 483 34,000 198 Climbing San Juan Center
Sun 12:08:07 PM 20.1667 -67.5667 317° Northwest 410 472 34,000 -150 Level San Juan Center
Sun 12:09:07 PM 20.2667 -67.6333 328° Northwest 410 472 33,700 -595 Descending San Juan Center
Sun 12:10:08 PM 20.3500 -67.7167 317° Northwest 410 472 32,800 -843 Descending San Juan Center
Sun 12:11:08 PM 20.4500 -67.8000 322° Northwest 430 495 32,000 -338 Descending San Juan Center
Sun 12:12:30 PM 20.5894 -67.9094 324° Northwest 517 595 32,000  Level Miami Center
Sun 12:13:30 PM 20.6792 -67.9878 321° Northwest 466 536 32,000  Level Miami Center
Sun 12:14:30 PM 20.7756 -68.0700 321° Northwest 445 512 32,000  Level Miami Center
Sun 12:15:30 PM 20.8497 -68.1669 309° West 429 494 32,000  Level Miami Center
Sun 12:16:30 PM 20.9242 -68.2686 308° West 434 499 32,000  Level Miami Center
Sun 12:18:00 PM 21.0354 -68.4231 308° West  Level FlightAware Approximate
Sun 12:18:30 PM 21.0728 -68.4744 308° West 439 505 32,000  Level Miami Center
Sun 12:19:30 PM 21.1431 -68.5789 306° West 439 505 32,000  Level Miami Center
Sun 12:20:30 PM 21.2172 -68.6786 309° West 434 499 32,000  Level Miami Center
Sun 12:21:30 PM 21.2933 -68.7806 309° West 439 505 32,000  Level Miami Center
Sun 12:22:30 PM 21.3633 -68.8831 306° West 430 495 32,000  Level Miami Center
Sun 12:23:30 PM 21.4353 -68.9856 307° West 437 503 32,000  Level Miami Center
Sun 12:24:30 PM 21.5050 -69.0861 307° West 437 503 32,000  Level Miami Center
Sun 12:25:30 PM 21.5808 -69.1886 309° West 437 503 32,000  Level Miami Center
Sun 12:26:30 PM 21.6569 -69.2914 309° West 437 503 32,000  Level Miami Center
Sun 12:27:30 PM 21.7286 -69.3967 306° West 437 503 32,000  Level Miami Center
Sun 12:28:30 PM 21.8003 -69.4975 307° West 437 503 32,000  Level Miami Center
Sun 12:29:30 PM 21.8761 -69.6025 308° West 437 503 32,000  Level Miami Center
Sun 12:30:30 PM 21.9478 -69.7058 307° West 437 503 32,000  Level Miami Center
Sun 12:31:30 PM 22.0239 -69.8158 307° West 437 503 32,000  Level Miami Center
Sun 12:32:30 PM 22.0975 -69.9194 307° West 442 509 32,000  Level Miami Center
Sun 12:33:30 PM 22.1689 -70.0253 306° West 442 509 32,000  Level Miami Center
Sun 12:34:30 PM 22.2444 -70.1289 308° West 437 503 32,000  Level Miami Center
Sun 12:35:30 PM 22.3178 -70.2328 307° West 437 503 32,000  Level Miami Center
Sun 12:36:30 PM 22.3914 -70.3389 307° West 437 503 32,000  Level Miami Center
Sun 12:37:30 PM 22.4625 -70.4453 306° West 437 503 32,000  Level Miami Center
Sun 12:38:30 PM 22.5358 -70.5517 307° West 437 503 32,000  Level Miami Center
Sun 12:39:30 PM 22.6092 -70.6561 307° West 442 509 32,000  Level Miami Center
Sun 12:40:30 PM 22.6822 -70.7606 307° West 437 503 32,000  Level Miami Center
Sun 12:41:30 PM 22.7572 -70.8672 307° West 443 510 32,000  Level Miami Center
Sun 12:42:30 PM 22.8322 -70.9694 309° West 443 510 32,000  Level Miami Center
Sun 12:43:30 PM 22.9056 -71.0811 306° West 443 510 32,000  Level Miami Center
Sun 12:44:30 PM 22.9806 -71.1881 307° West 448 516 32,000  Level Miami Center
Sun 12:45:30 PM 23.0536 -71.2978 306° West 448 516 32,000  Level Miami Center
Sun 12:46:30 PM 23.1283 -71.4028 308° West 448 516 32,000  Level Miami Center
Sun 12:47:30 PM 23.1992 -71.5125 305° West 448 516 32,000  Level Miami Center
Sun 12:48:30 PM 23.2758 -71.6200 308° West 453 521 32,000  Level Miami Center
Sun 12:49:30 PM 23.3486 -71.7303 306° West 453 521 32,000  Level Miami Center
Sun 12:50:30 PM 23.4214 -71.8428 305° West 447 514 32,000  Level Miami Center
Sun 12:51:30 PM 23.4936 -71.9461 307° West 447 514 32,000  Level Miami Center
Sun 12:52:30 PM 23.5681 -72.0519 308° West 447 514 32,000  Level Miami Center
Sun 12:53:30 PM 23.6383 -72.1628 305° West 447 514 32,000  Level Miami Center
Sun 12:54:30 PM 23.7108 -72.2778 305° West 447 514 32,000  Level Miami Center
Sun 12:55:30 PM 23.7869 -72.3794 309° West 447 514 32,000  Level Miami Center
Sun 12:56:30 PM 23.8592 -72.4883 306° West 447 514 32,000 500 Level Miami Center
Sun 12:57:30 PM 23.9400 -72.6058 307° West 447 514 33,000 1,100 Climbing Miami Center
Sun 12:58:30 PM 24.0056 -72.7150 303° West 447 514 34,200 1,050 Climbing Miami Center
Sun 12:59:30 PM 24.0817 -72.8239 307° West 447 514 35,100 900 Climbing Miami Center
Sun 01:00:30 PM 24.1556 -72.9331 307° West 447 514 36,000 450 Climbing Miami Center
Sun 01:01:30 PM 24.2253 -73.0381 306° West 447 514 36,000  Level Miami Center
Sun 01:02:30 PM 24.2969 -73.1453 306° West 442 509 36,000  Level Miami Center
Sun 01:03:30 PM 24.3664 -73.2525 305° West 437 503 36,000  Level Miami Center
Sun 01:04:30 PM 24.4400 -73.3622 306° West 442 509 36,000  Level Miami Center
Sun 01:05:30 PM 24.5114 -73.4697 306° West 442 509 36,000  Level Miami Center
Sun 01:06:30 PM 24.5828 -73.5775 306° West 437 503 36,000  Level Miami Center
Sun 01:07:30 PM 24.6519 -73.6831 306° West 437 503 36,000  Level Miami Center
Sun 01:08:30 PM 24.7233 -73.7911 306° West 437 503 36,000  Level Miami Center
Sun 01:09:30 PM 24.7944 -73.8992 306° West 437 503 36,000  Level Miami Center
Sun 01:10:30 PM 24.8633 -74.0072 305° West 437 503 36,000  Level Miami Center
Sun 01:11:30 PM 24.9344 -74.1181 305° West 437 503 36,000  Level Miami Center
Sun 01:12:30 PM 25.0033 -74.2219 306° West 431 496 36,000  Level Miami Center
Sun 01:13:30 PM 25.0719 -74.3328 304° West 431 496 36,000  Level Miami Center
Sun 01:14:30 PM 25.1386 -74.4439 304° West 431 496 36,000  Level Miami Center
Sun 01:15:30 PM 25.2053 -74.5575 303° West 441 507 36,000  Level Miami Center
Sun 01:16:30 PM 25.2675 -74.6664 302° West 441 507 36,000  Level Miami Center
Sun 01:17:30 PM 25.3381 -74.7800 305° West 441 507 36,000  Level Miami Center
Sun 01:18:30 PM 25.4086 -74.8917 305° West 436 502 36,000  Level Miami Center
Sun 01:19:30 PM 25.4769 -75.0011 305° West 436 502 36,000  Level Miami Center
Sun 01:20:30 PM 25.5472 -75.1083 306° West 436 502 36,000  Level Miami Center
Sun 01:21:30 PM 25.6153 -75.2225 303° West 442 509 36,000  Level Miami Center
Sun 01:22:30 PM 25.6833 -75.3253 306° West 435 501 36,000  Level Miami Center
Sun 01:23:30 PM 25.7431 -75.4283 303° West 435 501 36,000  Level Miami Center
Sun 01:24:30 PM 25.8086 -75.5336 305° West 428 493 36,000  Level Miami Center
Sun 01:25:30 PM 25.8786 -75.6439 305° West 437 503 36,000  Level Miami Center
Sun 01:26:30 PM 25.9486 -75.7539 305° West 437 503 36,000  Level Miami Center
Sun 01:27:30 PM 26.0161 -75.8644 304° West 437 503 36,000  Level Miami Center
Sun 01:28:30 PM 26.0817 -75.9772 303° West 437 503 36,000  Level Miami Center
Sun 01:29:30 PM 26.1492 -76.0900 304° West 437 503 36,000  Level Miami Center
Sun 01:30:30 PM 26.2144 -76.1986 304° West 438 504 36,000  Level Miami Center
Sun 01:31:30 PM 26.2797 -76.3142 302° West 433 498 36,000  Level Miami Center
Sun 01:32:30 PM 26.3469 -76.4272 304° West 439 505 36,000  Level Miami Center
Sun 01:33:30 PM 26.4119 -76.5386 303° West 434 499 36,000  Level Miami Center
Sun 01:34:30 PM 26.4750 -76.6475 303° West 434 499 36,000  Level Miami Center
Sun 01:35:30 PM 26.5503 -76.7611 307° West 434 499 36,000  Level Miami Center
Sun 01:36:30 PM 26.6150 -76.8656 305° West 429 494 36,000  Level Miami Center
Sun 01:37:30 PM 26.6797 -76.9772 303° West 429 494 36,000  Level Miami Center
Sun 01:38:30 PM 26.7422 -77.0914 302° West 429 494 36,000  Level Miami Center
Sun 01:39:30 PM 26.8028 -77.2031 301° West 434 499 36,000  Level Miami Center
Sun 01:40:30 PM 26.8672 -77.3106 304° West 429 494 36,000  Level Miami Center
Sun 01:41:30 PM 26.9294 -77.4272 301° West 429 494 36,000  Level Miami Center
Sun 01:42:30 PM 26.9958 -77.5464 302° West 432 497 36,000  Level Miami Center
Sun 01:43:30 PM 27.0619 -77.6611 303° West 426 490 36,000  Level Miami Center
Sun 01:44:30 PM 27.1261 -77.7831 301° West 431 496 36,000  Level Miami Center
Sun 01:45:30 PM 27.1922 -77.8792 308° West 426 490 36,000  Level Miami Center
Sun 01:46:30 PM 27.2561 -77.9875 304° West 425 489 36,000  Level Miami Center
Sun 01:47:30 PM 27.3200 -78.1025 302° West 416 479 36,000  Level Miami Center
Sun 01:48:30 PM 27.3756 -78.1992 303° West 421 484 36,000  Level Miami Center
Sun 01:49:30 PM 27.4475 -78.3075 307° West 426 490 36,000 -50 Level Miami Center
Sun 01:50:30 PM 27.5133 -78.4161 304° West 426 490 35,900  Descending Miami Center
Sun 01:51:30 PM 27.5769 -78.5272 303° West 426 490 36,000  Climbing Miami Center
Sun 01:52:30 PM 27.6422 -78.6383 304° West 426 490 35,900  Descending Miami Center
Sun 01:53:30 PM 27.7119 -78.7567 304° West 420 483 36,000 50 Climbing Miami Center
Sun 01:54:30 PM 27.7814 -78.8658 306° West 420 483 36,000 350 Level Miami Center
Sun 01:55:30 PM 27.8425 -78.9656 305° West 420 483 36,700 500 Climbing Miami Center
Sun 01:56:30 PM 27.9119 -79.0772 305° West 427 491 37,000 100 Climbing Miami Center
Sun 01:57:30 PM 27.9792 -79.1844 305° West 427 491 36,900  Descending Miami Center
Sun 01:58:30 PM 28.0461 -79.2964 304° West 427 491 37,000 50 Climbing Miami Center
Sun 01:59:30 PM 28.1153 -79.4039 306° West 427 491 37,000  Level Miami Center
Sun 02:00:30 PM 28.1969 -79.4975 315° West 427 491 37,000 -50 Level Miami Center
Sun 02:01:30 PM 28.3017 -79.5919 322° Northwest 427 491 36,900  Descending Miami Center
Sun 02:02:30 PM 28.3942 -79.6767 321° Northwest 433 498 37,000 50 Climbing Miami Center
Sun 02:03:30 PM 28.4842 -79.7642 319° Northwest 433 498 37,000 -50 Level Miami Center
Sun 02:04:30 PM 28.5742 -79.8467 321° Northwest 428 493 36,900 -37 Descending Miami Center
Sun 02:06:11 PM 28.7286 -79.9878 321° Northwest 420 483 36,900 37 Level Jacksonville Center
Sun 02:07:11 PM 28.8139 -80.0681 320° Northwest 420 483 37,000 50 Climbing Jacksonville Center
Sun 02:08:11 PM 28.9075 -80.1533 321° Northwest 426 490 37,000  Level Jacksonville Center
Sun 02:09:11 PM 28.9969 -80.2386 320° Northwest 426 490 37,000  Level Jacksonville Center
Sun 02:10:11 PM 29.0925 -80.3264 321° Northwest 432 497 37,000  Level Jacksonville Center
Sun 02:11:11 PM 29.1861 -80.4119 321° Northwest 432 497 37,000  Level Jacksonville Center
Sun 02:12:11 PM 29.2775 -80.5000 320° Northwest 432 497 37,000 -50 Level Jacksonville Center
Sun 02:13:11 PM 29.3731 -80.5858 322° Northwest 438 504 36,900  Descending Jacksonville Center
Sun 02:14:11 PM 29.4644 -80.6744 320° Northwest 438 504 37,000 50 Climbing Jacksonville Center
Sun 02:15:11 PM 29.5639 -80.7533 325° Northwest 438 504 37,000  Level Jacksonville Center
Sun 02:16:11 PM 29.6672 -80.8275 328° Northwest 438 504 37,000 -50 Level Jacksonville Center
Sun 02:17:11 PM 29.7728 -80.9017 329° Northwest 438 504 36,900  Descending Jacksonville Center
Sun 02:18:11 PM 29.8764 -80.9739 329° Northwest 438 504 37,000  Climbing Jacksonville Center
Sun 02:19:11 PM 29.9797 -81.0439 330° Northwest 438 504 36,900 -50 Descending Jacksonville Center
Sun 02:20:11 PM 30.0831 -81.1211 327° Northwest 438 504 36,900 50 Level Jacksonville Center
Sun 02:21:11 PM 30.1864 -81.1936 329° Northwest 438 504 37,000 50 Climbing Jacksonville Center
Sun 02:22:11 PM 30.2875 -81.2664 328° Northwest 432 497 37,000  Level Jacksonville Center
Sun 02:23:11 PM 30.4056 -81.3511 328° Northwest 432 497 37,000  Level Jacksonville Center
Sun 02:24:11 PM 30.5086 -81.4242 329° Northwest 440 506 37,000  Level Jacksonville Center
Sun 02:25:11 PM 30.6139 -81.5022 327° Northwest 440 506 37,000  Level Jacksonville Center
Sun 02:26:11 PM 30.7169 -81.5756 329° Northwest 440 506 37,000  Level Jacksonville Center
Sun 02:28:11 PM 30.9231 -81.7303 327° Northwest 435 501 37,000  Level Jacksonville Center
Sun 02:29:11 PM 31.0239 -81.8042 328° Northwest 435 501 37,000  Level Jacksonville Center
Sun 02:30:11 PM 31.1247 -81.8781 328° Northwest 435 501 37,000 -50 Level Jacksonville Center
Sun 02:31:11 PM 31.2256 -81.9572 326° Northwest 436 502 36,900 -50 Descending Jacksonville Center
Sun 02:32:11 PM 31.3244 -82.0414 324° Northwest 436 502 36,900 -450 Level Jacksonville Center
Sun 02:33:11 PM 31.4189 -82.1258 323° Northwest 418 481 36,000 -450 Descending Jacksonville Center
Sun 02:34:11 PM 31.5133 -82.2128 322° Northwest 424 488 36,000  Level Jacksonville Center
Sun 02:36:41 PM 31.7525 -82.4172 324° Northwest 425 489 36,000  Level Atlanta Center
Sun 02:37:41 PM 31.8456 -82.5011 323° Northwest 425 489 36,000 -400 Level Atlanta Center
Sun 02:38:41 PM 31.9467 -82.5800 326° Northwest 430 495 35,200 -500 Descending Atlanta Center
Sun 02:39:41 PM 32.0478 -82.6569 327° Northwest 430 495 35,000 -350 Descending Atlanta Center
Sun 02:40:41 PM 32.1467 -82.7364 326° Northwest 430 495 34,500 -750 Descending Atlanta Center
Sun 02:41:41 PM 32.2478 -82.8158 326° Northwest 435 501 33,500 -950 Descending Atlanta Center
Sun 02:42:41 PM 32.3486 -82.8956 326° Northwest 435 501 32,600 -900 Descending Atlanta Center
Sun 02:43:41 PM 32.4497 -82.9781 325° Northwest 435 501 31,700 -1,100 Descending Atlanta Center
Sun 02:44:41 PM 32.5506 -83.0581 326° Northwest 435 501 30,400 -2,150 Descending Atlanta Center
Sun 02:45:41 PM 32.6533 -83.1408 326° Northwest 435 501 27,400 -2,750 Descending Atlanta Center
Sun 02:46:41 PM 32.7542 -83.2214 326° Northwest 435 501 24,900 -2,550 Descending Atlanta Center
Sun 02:47:41 PM 32.8506 -83.2969 327° Northwest 435 501 22,300 -2,600 Descending Atlanta Center
Sun 02:48:41 PM 32.9367 -83.3878 318° Northwest 429 494 19,700 -2,500 Descending Atlanta Center
Sun 02:49:41 PM 33.0039 -83.4914 308° West 405 466 17,300 -2,350 Descending Atlanta Center
Sun 02:50:41 PM 33.0608 -83.5878 305° West 399 459 15,000 -2,319 Descending Atlanta Center
Sun 02:51:40 PM 33.1333 -83.6833 312° West 373 429 12,700 -1,450 Descending Atlanta TRACON
Sun 02:52:41 PM 33.2000 -83.7833 309° West 334 384 12,100 -744 Descending Atlanta TRACON
Sun 02:53:41 PM 33.2500 -83.8500 312° West 302 348 11,200 -1,200 Descending Atlanta TRACON
Sun 02:54:41 PM 33.3167 -83.9333 314° West 296 341 9,700 -1,400 Descending Atlanta TRACON
Sun 02:55:41 PM 33.3683 -83.9867 319° Northwest 287 330 8,400 -1,450 Descending Atlanta Center
Sun 02:56:41 PM 33.4311 -84.0414 324° Northwest 281 323 6,800 -1,600 Descending Atlanta Center
Sun 02:57:41 PM 33.4936 -84.0961 324° Northwest 276 318 5,200 -1,650 Descending Atlanta Center
Sun 02:58:41 PM 33.5519 -84.1486 323° Northwest 264 304 3,500 -1,100 Descending Atlanta Center
Sun 02:59:41 PM 33.6083 -84.2008 322° Northwest 264 304 3,000 -316 Descending Atlanta Center
Sun 03:00:35 PM 33.6333 -84.2500 301° West 217 250 2,900 -263 Descending Atlanta TRACON
Sun 03:01:35 PM 33.6333 -84.3167 270° West 194 223 2,500 -650 Descending Atlanta TRACON
Sun 03:02:35 PM 33.6333 -84.3833 270° West 174 200 1,600 -900 Descending Atlanta TRACON

Login

Don't have an account? Register now (free) for customized features, flight alerts, and more!